SCP
0 0 0 0 0 0 0 0 1 0 1 1 0 0 0 0 0 -0 0 0 0 1 1 1 1 0 1 1 0 0 0 0 0 0 0 0 0 0 0 0 0 0 0
0 0 0 0 0 0 0 1 1 1 1 1 0 0 0 0 0 0 0 0 1 1 1 1 1 0 1 1 0 0 0 0 1 0 1 1 1 0 0 0 0 0 0
-0 0 -0 0 0 0 0 1 1 1 1 1 1 1 0 0 0 0 0 0 1 1 1 1 1 1 1 1 0 1 1 1 1 1 1 1 1 1 1 0 0 0 0
-0 -0 -0 0 0 0 0 0 1 1 0 1 1 0 0 0 0 0 0 0 0 0 1 1 1 1 1 0 0 0 0 0 0 0 0 0 0 1 1 1 1 0 0
-0 -0 0 0 0 0 -0 1 1 1 1 1 1 0 0 0 0 0 0 0 0 0 0 0 0 0 0 0 0 0 0 0 0 0 0 0 0 0 0 0 1 1 1
-0 0 0 0 0 -0 0 1 1 1 1 1 1 0 0 0 0 0 0 0 0 0 0 0 0 0 0 0 0 0 0 0 0 0 0 0 0 0 0 0 0 0 1
0 0 -0 -0 0 -0 0 1 1 0 1 1 0 0 0 0 0 0 0 0 0 0 0 0 0 0 0 0 1 0 0 0 0 0 0 0 0 0 0 0 0 0 0
0 0 0 -0 -0 -0 0 1 1 1 1 1 0 0 0 0 0 0 0 0 0 0 0 0 0 0 0 0 0 0 0 0 0 0 0 0 0 0 0 0 0 0 0
0 0 0 0 -0 -0 -0 0 1 1 1 1 0 0 0 0 0 0 0 1 1 0 0 0 0 0 0 0 1 1 0 0 0 0 0 0 0 0 0 0 0 0 0
0 0 0 0 0 0 0 1 1 2 2 1 1 1 0 0 1 1 1 1 1 0 0 0 0 0 0 0 0 1 2 0 0 0 0 0 0 0 0 0 0 0 0
0 -0 -0 0 0 1 1 1 1 2 2 2 1 0 0 0 1 1 1 1 0 0 1 1 1 0 0 0 0 0 0 0 0 0 0 0 0 0 0 0 0 0 0
0 -0 -0 0 0 1 1 1 1 1 2 3 1 1 0 1 1 1 1 1 1 0 1 0 1 0 0 0 0 0 0 0 0 0 0 0 0 0 0 0 0 0 0
0 -0 -0 0 1 1 1 1 2 2 3 1 1 1 1 1 1 1 1 1 1 0 0 0 0 0 0 0 0 0 0 0 0 0 0 0 0 0 0 0 0 0 -0
0 0 -0 -0 0 1 1 1 2 3 1 1 0 0 1 1 1 1 1 1 0 0 0 0 0 0 0 -0 0 0 0 0 0 0 0 0 0 0 0 0 0 0 0
0 -0 -0 0 1 2 2 2 3 3 0 1 0 -0 1 0 1 1 1 0 0 0 0 0 0 0 0 0 0 0 0 0 0 0 0 0 0 0 0 0 0 0 0
0 0 0 1 2 2 4 4 5 2 0 0 0 0 -0 -1 0 0 0 0 0 0 0 0 0 0 0 0 0 0 0 0 0 0 0 0 0 0 0 0 0 0 0
0 0 0 0 2 6 7 7 7 0 0 0 0 0 0 0 0 0 0 0 0 0 0 0 0 0 0 0 0 0 0 0 0 0 0 0 0 0 0 0 0 0 -0
0 1 2 3 3 4 6 7 1 0 0 0 0 -0 0 0 0 1 0 0 0 0 0 0 0 0 0 0 0 0 0 0 0 0 0 0 0 0 0 0 0 -0 -0
0 1 2 3 4 5 7 6 0 0 0 0 0 0 0 0 0 0 0 0 0 0 0 0 0 0 0 0 0 0 0 0 0 0 0 0 0 0 0 -0 -0 -0 -0
1 2 3 4 5 6 6 3 1 0 0 0 0 0 0 0 0 0 0 0 0 0 0 0 0 0 0 0 0 0 0 0 0 0 0 0 0 0 0 -0 -0 -0 -0
2 3 4 5 5 5 5 2 0 0 0 0 0 0 0 0 0 0 0 0 0 0 0 0 0 0 0 0 0 0 0 0 0 0 0 0 0 0 -0 0 -0 -0 -0
2 3 4 4 3 4 3 1 0 0 0 0 0 0 0 0 0 0 0 0 0 0 0 0 -0 0 0 0 0 0 0 0 0 0 0 0 0 0 0 -0 -0 -0 -0
3 3 3 2 3 1 1 1 0 1 0 0 0 0 0 0 0 0 0 0 0 0 0 0 0 -0 -0 0 0 0 0 0 0 0 0 0 0 0 0 0 -0 -0 -0
3 3 2 3 1 0 0 0 1 1 0 0 0 0 0 0 0 0 0 0 0 0 0 0 0 0 -0 0 -0 -0 0 0 0 0 0 0 0 0 0 0 -0 -0 -0
3 2 2 1 1 0 0 1 0 0 0 0 0 0 0 0 0 0 0 0 0 0 0 0 0 0 0 0 -0 -0 -0 0 0 0 -0 0 0 0 0 0 0 -0 -0
3 2 1 1 1 0 0 0 0 0 0 0 0 0 0 0 0 0 0 0 0 0 0 0 0 0 0 0 0 -0 -0 -0 0 0 0 0 0 0 0 0 0 -0 -0
Wind_Speed_500mb
12 16 12 12 21 20 14 20 19 19 17 15 14 16 16 15 14 19 12 14 10 15 20 19 20 15 15 14 11 11 13 13 14 13 12 13 14 16 17 18 19 22 27
15 14 2 2 16 16 14 15 16 16 21 26 27 17 13 16 16 16 7 7 7 12 12 19 20 18 19 16 13 13 14 14 15 17 17 17 18 20 20 21 22 23 23
20 14 11 4 1 6 11 19 17 14 26 22 30 30 24 35 19 7 11 11 26 17 14 16 17 17 18 20 18 19 19 19 20 22 24 26 26 27 27 27 27 27 26
22 13 13 6 9 7 15 18 15 16 29 34 23 28 33 26 7 7 11 20 16 15 19 25 21 19 17 16 17 23 24 24 25 26 26 27 28 32 35 36 35 34 33
12 24 12 6 10 14 17 18 28 26 35 31 30 37 20 22 16 6 11 12 18 20 28 31 24 29 31 17 14 18 18 16 18 22 24 26 28 32 33 36 39 40 39
12 31 23 9 11 20 19 21 27 32 40 29 30 30 22 14 20 14 12 17 22 29 24 32 31 24 15 27 20 17 14 20 27 28 27 26 33 39 40 38 37 37 40
19 19 21 21 10 13 16 21 28 33 31 28 31 33 16 3 11 15 18 13 35 29 30 32 24 29 27 26 24 22 20 20 32 25 28 38 45 41 39 41 39 37 36
24 32 23 24 19 20 24 30 32 32 30 29 33 32 17 11 23 5 34 16 35 39 30 33 23 36 26 28 26 26 26 27 33 36 44 53 61 48 35 34 37 37 36
30 25 28 24 23 27 31 30 35 31 34 34 36 34 12 9 38 15 27 28 32 43 35 30 22 26 28 27 26 27 26 33 37 39 48 58 64 43 31 28 31 33 35
32 28 27 28 33 34 35 31 31 34 32 31 34 36 34 32 27 25 16 37 43 45 31 26 26 23 23 24 25 33 29 33 33 45 55 61 51 36 28 25 25 29 34
39 30 31 34 30 29 29 29 27 31 33 35 40 40 43 47 40 36 49 58 54 39 25 30 20 22 14 19 26 27 28 32 49 54 60 57 33 26 29 30 28 28 28
44 34 34 31 26 26 26 28 30 28 29 30 32 39 35 41 49 37 44 51 49 41 25 30 11 5 12 19 20 27 39 43 51 53 47 39 31 32 37 42 43 42 40
33 35 39 42 44 35 26 32 33 29 25 30 32 44 42 33 38 39 43 48 47 26 27 27 21 11 19 23 31 33 32 44 45 33 31 32 34 42 46 48 50 52 53
46 44 43 39 42 38 30 33 38 33 27 24 31 40 45 34 38 41 36 36 32 15 19 26 10 36 36 45 35 36 47 42 36 33 33 37 40 48 58 63 67 70 73
50 44 45 45 41 39 36 32 37 31 24 39 44 43 37 40 41 36 28 19 10 11 17 22 26 34 38 24 30 33 42 46 31 38 45 43 48 61 67 66 66 65 67
57 55 50 53 49 35 34 36 34 34 20 59 70 46 42 44 40 25 19 8 11 12 11 20 30 24 23 28 25 44 48 39 29 31 45 60 57 67 72 48 47 45 43
56 51 46 43 48 53 46 46 45 40 37 45 78 70 50 31 28 21 12 12 13 14 20 28 23 19 22 32 43 38 35 34 28 40 48 53 63 62 40 38 39 41 42
59 57 56 59 61 60 51 51 53 46 29 27 25 45 15 25 18 11 9 14 15 25 29 18 11 21 35 36 39 39 50 45 41 43 47 73 47 38 42 46 52 50 50
50 51 55 60 60 56 53 46 45 49 34 35 24 17 12 16 2 11 15 18 22 24 15 9 13 26 38 50 48 49 56 53 49 48 57 62 41 41 55 39 38 38 48
47 48 49 48 46 44 40 36 31 33 27 13 12 7 11 0 11 11 19 21 21 19 15 18 29 37 49 58 64 69 65 59 56 55 62 37 36 48 51 37 34 27 27
48 46 44 40 39 32 25 26 25 21 6 25 10 6 5 2 6 12 14 18 24 23 26 36 42 45 61 76 75 72 67 63 64 67 47 41 41 49 55 41 36 34 33
44 42 39 28 24 22 25 23 17 10 9 11 3 6 3 7 8 10 23 27 26 30 36 46 55 55 64 70 86 73 66 70 71 75 43 42 42 50 56 48 33 32 33
38 33 23 20 24 21 19 15 9 9 12 10 13 5 4 10 11 21 23 22 25 31 39 45 50 52 59 66 69 84 72 63 78 86 64 56 45 52 57 50 36 31 31
31 24 20 22 21 20 15 10 12 18 20 20 7 2 2 11 13 20 17 16 23 30 31 30 36 35 43 57 64 68 82 77 77 88 91 62 40 53 59 53 42 33 35
30 22 25 21 19 15 14 16 16 27 23 23 18 10 5 4 18 18 14 21 30 31 28 21 25 24 38 43 54 61 79 88 83 72 92 82 72 32 62 60 53 38 42
31 29 26 20 15 19 24 19 23 28 25 21 15 11 9 14 17 16 20 31 32 31 23 23 28 29 32 33 48 59 69 84 91 65 85 78 84 64 37 63 66 53 44
Wind_Direction_500mb
125 106 112 73 66 75 43 16 4 36 35 10 350 349 21 22 8 348 351 332 342 358 354 353 338 322 314 312 295 294 283 283 286 288 291 287 280 274 270 272 268 261 249
152 167 120 84 97 54 7 7 12 14 3 353 18 9 344 343 347 346 353 25 339 343 352 336 333 339 322 313 294 279 269 267 272 277 277 279 283 279 272 269 272 268 259
177 155 150 149 182 332 348 338 343 328 351 355 15 5 336 325 287 355 302 318 326 307 325 331 312 328 317 306 310 307 297 286 279 277 277 280 280 275 273 270 268 269 267
197 164 155 220 213 316 329 299 301 292 344 346 5 10 25 12 89 291 261 298 308 301 314 319 313 320 322 306 306 301 296 289 286 286 285 281 277 274 273 271 267 265 262
220 197 197 131 276 313 282 332 307 316 337 334 351 345 343 17 50 335 299 287 309 303 325 322 304 322 321 302 296 310 313 302 306 302 296 294 291 283 276 272 267 261 257
303 212 211 249 291 322 266 288 299 315 326 330 332 349 342 349 27 3 327 290 311 311 314 330 302 310 312 332 311 310 305 308 319 319 313 316 314 299 284 274 269 265 256
297 274 239 231 240 283 297 301 302 312 323 319 326 340 24 108 25 1 3 283 310 320 297 308 309 310 322 324 338 330 318 334 337 325 325 326 324 310 291 280 272 264 262
289 281 274 240 247 264 265 277 290 307 316 318 327 337 343 336 318 294 349 311 335 319 297 332 286 294 301 306 328 334 325 318 327 326 326 328 328 318 293 278 273 266 259
277 290 285 272 262 263 273 279 284 307 311 319 324 329 333 302 330 318 330 329 331 338 318 335 319 305 303 289 307 303 290 310 310 310 316 321 325 314 298 281 275 273 266
276 287 297 297 281 278 281 285 286 292 299 304 314 321 310 313 314 313 308 337 343 336 328 327 322 326 298 281 281 315 296 295 297 306 313 315 317 308 312 311 299 286 274
266 276 288 302 294 294 299 301 295 290 297 306 316 320 321 320 321 316 324 332 339 349 345 352 316 337 287 281 241 285 270 290 299 303 308 310 305 305 312 310 314 314 304
262 267 288 294 298 298 310 315 300 295 301 299 314 327 330 329 326 322 326 331 338 352 8 16 46 33 297 316 324 305 303 304 309 308 306 305 296 297 300 300 297 293 293
246 269 284 286 285 287 296 321 302 300 307 315 335 336 333 330 332 323 325 330 341 11 33 45 85 59 344 322 319 324 326 328 328 327 321 309 303 300 298 294 289 287 288
244 256 268 285 289 275 273 305 313 298 307 312 336 327 331 340 330 331 331 333 340 7 26 32 323 348 345 348 358 340 330 329 328 320 312 305 301 298 297 294 289 283 279
241 248 254 262 284 270 272 293 305 303 306 308 322 340 335 342 338 339 348 350 356 357 360 355 333 337 340 343 330 322 325 328 323 310 310 305 304 303 300 297 294 284 278
253 255 261 262 269 268 270 273 282 277 286 306 303 320 333 332 333 356 0 31 21 355 354 330 342 346 326 320 329 326 328 327 332 333 325 322 318 315 310 303 298 290 281
254 258 263 266 265 270 270 265 261 256 214 299 279 296 319 318 346 358 33 29 8 333 333 335 348 338 332 329 330 341 345 349 354 325 324 316 310 319 310 299 293 285 275
258 262 266 267 269 270 269 267 265 262 262 275 279 282 336 333 355 68 10 356 336 331 323 336 6 340 339 354 356 356 354 1 355 344 336 336 338 334 311 307 298 288 270
259 261 264 268 272 275 276 281 272 278 293 279 272 274 307 325 80 21 3 338 324 329 352 347 354 359 18 17 7 3 4 2 356 351 339 338 342 335 333 327 313 299 282
261 266 271 274 278 287 291 285 288 296 301 272 233 222 333 332 9 350 334 333 342 11 23 28 31 30 27 20 15 11 13 11 5 357 356 354 353 352 358 346 355 354 332
266 272 275 278 286 286 287 278 296 308 345 189 178 290 149 52 337 332 349 7 28 38 46 45 42 36 30 23 21 18 16 13 14 353 5 4 4 5 4 4 9 11 3
267 274 280 285 282 274 263 273 286 276 322 154 195 150 315 355 8 8 15 22 29 45 53 50 47 48 39 33 26 24 20 24 16 13 17 25 13 17 15 14 16 22 19
267 269 272 266 258 260 272 272 249 223 181 156 159 167 90 41 24 26 23 24 42 60 54 48 44 43 37 29 24 27 29 33 29 20 20 22 24 29 26 21 18 39 32
255 255 246 240 241 251 243 235 205 170 174 149 155 196 337 1 26 29 23 39 59 78 57 35 41 42 36 30 23 22 27 34 38 28 25 15 23 30 32 34 27 46 45
235 227 219 222 233 215 206 210 204 186 163 153 164 178 220 53 39 31 37 85 82 78 69 47 42 40 28 26 22 18 25 27 31 26 23 27 26 42 35 38 48 52 55
217 206 210 216 189 194 189 208 194 164 163 171 169 160 126 56 45 57 83 94 86 76 75 67 50 43 32 21 22 24 27 29 30 30 23 26 37 36 34 43 49 54 64
Wind_Speed_850mb
12 16 12 12 21 20 14 20 19 19 17 15 14 16 16 15 14 19 12 14 10 15 20 19 20 15 15 14 11 11 13 13 14 13 12 13 14 16 17 18 19 22 27
15 14 2 2 16 16 14 15 16 16 21 26 27 17 13 16 16 16 7 7 7 12 12 19 20 18 19 16 13 13 14 14 15 17 17 17 18 20 20 21 22 23 23
20 14 11 4 1 6 11 19 17 14 26 22 30 30 24 35 19 7 11 11 26 17 14 16 17 17 18 20 18 19 19 19 20 22 24 26 26 27 27 27 27 27 26
22 13 13 6 9 7 15 18 15 16 29 34 23 28 33 26 7 7 11 20 16 15 19 25 21 19 17 16 17 23 24 24 25 26 26 27 28 32 35 36 35 34 33
12 24 12 6 10 14 17 18 28 26 35 31 30 37 20 22 16 6 11 12 18 20 28 31 24 29 31 17 14 18 18 16 18 22 24 26 28 32 33 36 39 40 39
12 31 23 9 11 20 19 21 27 32 40 29 30 30 22 14 20 14 12 17 22 29 24 32 31 24 15 27 20 17 14 20 27 28 27 26 33 39 40 38 37 37 40
19 19 21 21 10 13 16 21 28 33 31 28 31 33 16 3 11 15 18 13 35 29 30 32 24 29 27 26 24 22 20 20 32 25 28 38 45 41 39 41 39 37 36
24 32 23 24 19 20 24 30 32 32 30 29 33 32 17 11 23 5 34 16 35 39 30 33 23 36 26 28 26 26 26 27 33 36 44 53 61 48 35 34 37 37 36
30 25 28 24 23 27 31 30 35 31 34 34 36 34 12 9 38 15 27 28 32 43 35 30 22 26 28 27 26 27 26 33 37 39 48 58 64 43 31 28 31 33 35
32 28 27 28 33 34 35 31 31 34 32 31 34 36 34 32 27 25 16 37 43 45 31 26 26 23 23 24 25 33 29 33 33 45 55 61 51 36 28 25 25 29 34
39 30 31 34 30 29 29 29 27 31 33 35 40 40 43 47 40 36 49 58 54 39 25 30 20 22 14 19 26 27 28 32 49 54 60 57 33 26 29 30 28 28 28
44 34 34 31 26 26 26 28 30 28 29 30 32 39 35 41 49 37 44 51 49 41 25 30 11 5 12 19 20 27 39 43 51 53 47 39 31 32 37 42 43 42 40
33 35 39 42 44 35 26 32 33 29 25 30 32 44 42 33 38 39 43 48 47 26 27 27 21 11 19 23 31 33 32 44 45 33 31 32 34 42 46 48 50 52 53
46 44 43 39 42 38 30 33 38 33 27 24 31 40 45 34 38 41 36 36 32 15 19 26 10 36 36 45 35 36 47 42 36 33 33 37 40 48 58 63 67 70 73
50 44 45 45 41 39 36 32 37 31 24 39 44 43 37 40 41 36 28 19 10 11 17 22 26 34 38 24 30 33 42 46 31 38 45 43 48 61 67 66 66 65 67
57 55 50 53 49 35 34 36 34 34 20 59 70 46 42 44 40 25 19 8 11 12 11 20 30 24 23 28 25 44 48 39 29 31 45 60 57 67 72 48 47 45 43
56 51 46 43 48 53 46 46 45 40 37 45 78 70 50 31 28 21 12 12 13 14 20 28 23 19 22 32 43 38 35 34 28 40 48 53 63 62 40 38 39 41 42
59 57 56 59 61 60 51 51 53 46 29 27 25 45 15 25 18 11 9 14 15 25 29 18 11 21 35 36 39 39 50 45 41 43 47 73 47 38 42 46 52 50 50
50 51 55 60 60 56 53 46 45 49 34 35 24 17 12 16 2 11 15 18 22 24 15 9 13 26 38 50 48 49 56 53 49 48 57 62 41 41 55 39 38 38 48
47 48 49 48 46 44 40 36 31 33 27 13 12 7 11 0 11 11 19 21 21 19 15 18 29 37 49 58 64 69 65 59 56 55 62 37 36 48 51 37 34 27 27
48 46 44 40 39 32 25 26 25 21 6 25 10 6 5 2 6 12 14 18 24 23 26 36 42 45 61 76 75 72 67 63 64 67 47 41 41 49 55 41 36 34 33
44 42 39 28 24 22 25 23 17 10 9 11 3 6 3 7 8 10 23 27 26 30 36 46 55 55 64 70 86 73 66 70 71 75 43 42 42 50 56 48 33 32 33
38 33 23 20 24 21 19 15 9 9 12 10 13 5 4 10 11 21 23 22 25 31 39 45 50 52 59 66 69 84 72 63 78 86 64 56 45 52 57 50 36 31 31
31 24 20 22 21 20 15 10 12 18 20 20 7 2 2 11 13 20 17 16 23 30 31 30 36 35 43 57 64 68 82 77 77 88 91 62 40 53 59 53 42 33 35
30 22 25 21 19 15 14 16 16 27 23 23 18 10 5 4 18 18 14 21 30 31 28 21 25 24 38 43 54 61 79 88 83 72 92 82 72 32 62 60 53 38 42
31 29 26 20 15 19 24 19 23 28 25 21 15 11 9 14 17 16 20 31 32 31 23 23 28 29 32 33 48 59 69 84 91 65 85 78 84 64 37 63 66 53 44
Wind_Direction_850mb
125 106 112 73 66 75 43 16 4 36 35 10 350 349 21 22 8 348 351 332 342 358 354 353 338 322 314 312 295 294 283 283 286 288 291 287 280 274 270 272 268 261 249
152 167 120 84 97 54 7 7 12 14 3 353 18 9 344 343 347 346 353 25 339 343 352 336 333 339 322 313 294 279 269 267 272 277 277 279 283 279 272 269 272 268 259
177 155 150 149 182 332 348 338 343 328 351 355 15 5 336 325 287 355 302 318 326 307 325 331 312 328 317 306 310 307 297 286 279 277 277 280 280 275 273 270 268 269 267
197 164 155 220 213 316 329 299 301 292 344 346 5 10 25 12 89 291 261 298 308 301 314 319 313 320 322 306 306 301 296 289 286 286 285 281 277 274 273 271 267 265 262
220 197 197 131 276 313 282 332 307 316 337 334 351 345 343 17 50 335 299 287 309 303 325 322 304 322 321 302 296 310 313 302 306 302 296 294 291 283 276 272 267 261 257
303 212 211 249 291 322 266 288 299 315 326 330 332 349 342 349 27 3 327 290 311 311 314 330 302 310 312 332 311 310 305 308 319 319 313 316 314 299 284 274 269 265 256
297 274 239 231 240 283 297 301 302 312 323 319 326 340 24 108 25 1 3 283 310 320 297 308 309 310 322 324 338 330 318 334 337 325 325 326 324 310 291 280 272 264 262
289 281 274 240 247 264 265 277 290 307 316 318 327 337 343 336 318 294 349 311 335 319 297 332 286 294 301 306 328 334 325 318 327 326 326 328 328 318 293 278 273 266 259
277 290 285 272 262 263 273 279 284 307 311 319 324 329 333 302 330 318 330 329 331 338 318 335 319 305 303 289 307 303 290 310 310 310 316 321 325 314 298 281 275 273 266
276 287 297 297 281 278 281 285 286 292 299 304 314 321 310 313 314 313 308 337 343 336 328 327 322 326 298 281 281 315 296 295 297 306 313 315 317 308 312 311 299 286 274
266 276 288 302 294 294 299 301 295 290 297 306 316 320 321 320 321 316 324 332 339 349 345 352 316 337 287 281 241 285 270 290 299 303 308 310 305 305 312 310 314 314 304
262 267 288 294 298 298 310 315 300 295 301 299 314 327 330 329 326 322 326 331 338 352 8 16 46 33 297 316 324 305 303 304 309 308 306 305 296 297 300 300 297 293 293
246 269 284 286 285 287 296 321 302 300 307 315 335 336 333 330 332 323 325 330 341 11 33 45 85 59 344 322 319 324 326 328 328 327 321 309 303 300 298 294 289 287 288
244 256 268 285 289 275 273 305 313 298 307 312 336 327 331 340 330 331 331 333 340 7 26 32 323 348 345 348 358 340 330 329 328 320 312 305 301 298 297 294 289 283 279
241 248 254 262 284 270 272 293 305 303 306 308 322 340 335 342 338 339 348 350 356 357 360 355 333 337 340 343 330 322 325 328 323 310 310 305 304 303 300 297 294 284 278
253 255 261 262 269 268 270 273 282 277 286 306 303 320 333 332 333 356 0 31 21 355 354 330 342 346 326 320 329 326 328 327 332 333 325 322 318 315 310 303 298 290 281
254 258 263 266 265 270 270 265 261 256 214 299 279 296 319 318 346 358 33 29 8 333 333 335 348 338 332 329 330 341 345 349 354 325 324 316 310 319 310 299 293 285 275
258 262 266 267 269 270 269 267 265 262 262 275 279 282 336 333 355 68 10 356 336 331 323 336 6 340 339 354 356 356 354 1 355 344 336 336 338 334 311 307 298 288 270
259 261 264 268 272 275 276 281 272 278 293 279 272 274 307 325 80 21 3 338 324 329 352 347 354 359 18 17 7 3 4 2 356 351 339 338 342 335 333 327 313 299 282
261 266 271 274 278 287 291 285 288 296 301 272 233 222 333 332 9 350 334 333 342 11 23 28 31 30 27 20 15 11 13 11 5 357 356 354 353 352 358 346 355 354 332
266 272 275 278 286 286 287 278 296 308 345 189 178 290 149 52 337 332 349 7 28 38 46 45 42 36 30 23 21 18 16 13 14 353 5 4 4 5 4 4 9 11 3
267 274 280 285 282 274 263 273 286 276 322 154 195 150 315 355 8 8 15 22 29 45 53 50 47 48 39 33 26 24 20 24 16 13 17 25 13 17 15 14 16 22 19
267 269 272 266 258 260 272 272 249 223 181 156 159 167 90 41 24 26 23 24 42 60 54 48 44 43 37 29 24 27 29 33 29 20 20 22 24 29 26 21 18 39 32
255 255 246 240 241 251 243 235 205 170 174 149 155 196 337 1 26 29 23 39 59 78 57 35 41 42 36 30 23 22 27 34 38 28 25 15 23 30 32 34 27 46 45
235 227 219 222 233 215 206 210 204 186 163 153 164 178 220 53 39 31 37 85 82 78 69 47 42 40 28 26 22 18 25 27 31 26 23 27 26 42 35 38 48 52 55
217 206 210 216 189 194 189 208 194 164 163 171 169 160 126 56 45 57 83 94 86 76 75 67 50 43 32 21 22 24 27 29 30 30 23 26 37 36 34 43 49 54 64